EW7144 Weather Reports


Display with metric or nautical units.
time (UTC)temp
F
wind
direction
speed
MPH
gust
MPH
rain 1hr
in
rain 24hr
in
rain mn
in
humidity
%
barometer
mb
20211201191905 61 102 5.0 18.0 0.00 0.03 0.00 79 1023.4
20211201191406 61 128 9.0 24.0 0.00 0.03 0.00 79 1023.3
20211201190905 61 121 5.0 18.0 0.00 0.03 0.00 80 1023.3
20211201190405 61 111 6.0 13.0 0.00 0.03 0.00 80 1023.3
20211201185905 61 144 6.0 14.0 0.00 0.03 0.00 81 1023.4
20211201185405 61 117 5.0 12.0 0.00 0.03 0.00 80 1023.5
20211201184905 61 120 6.0 13.0 0.00 0.03 0.00 80 1023.5
20211201184406 61 96 3.0 12.0 0.00 0.03 0.00 80 1023.3
20211201183905 61 122 4.0 12.0 0.00 0.03 0.00 80 1023.3
20211201183406 61 89 5.0 12.0 0.00 0.03 0.00 80 1023.3
20211201182905 61 126 4.0 10.0 0.00 0.03 0.00 80 1023.3
20211201182405 61 37 3.0 6.0 0.00 0.03 0.00 80 1023.0
20211201181905 61 33 3.0 12.0 0.00 0.03 0.00 80 1022.9
20211201181406 61 71 3.0 10.0 0.00 0.03 0.00 81 1022.9
20211201180905 60 270 3.0 8.0 0.00 0.03 0.00 81 1022.9
20211201180406 60 8 2.0 7.0 0.00 0.03 0.00 81 1022.9
20211201175906 60 21 2.0 12.0 0.00 0.03 0.00 81 1022.8
20211201175406 60 8 5.0 12.0 0.00 0.03 0.00 81 1022.8
20211201174906 60 128 3.0 12.0 0.00 0.03 0.00 81 1022.8
20211201174405 60 79 4.0 16.0 0.00 0.03 0.00 81 1022.7
20211201173906 60 136 7.0 14.0 0.00 0.03 0.00 81 1022.7
20211201173406 60 107 5.0 14.0 0.00 0.03 0.00 82 1022.6
20211201172905 60 106 7.0 15.0 0.00 0.03 0.00 82 1022.5
20211201172405 60 141 8.0 17.0 0.00 0.03 0.00 82 1022.4
20211201171905 60 134 9.0 22.0 0.00 0.03 0.00 82 1022.4
20211201171405 60 116 7.0 15.0 0.00 0.03 0.00 82 1022.4
20211201170906 60 122 6.0 15.0 0.00 0.03 0.00 82 1022.4
20211201170405 60 115 6.0 16.0 0.00 0.03 0.00 82 1022.4
20211201165905 60 114 5.0 12.0 0.00 0.03 0.00 82 1022.4
20211201165405 60 81 4.0 17.0 0.00 0.03 0.00 82 1022.4
20211201164905 60 114 6.0 23.0 0.00 0.03 0.00 82 1022.4
20211201164405 60 121 5.0 15.0 0.00 0.03 0.00 82 1022.4
20211201163906 60 105 3.0 15.0 0.00 0.03 0.00 82 1022.4
20211201163406 60 110 6.0 17.0 0.00 0.03 0.00 82 1022.3
20211201162906 60 107 5.0 12.0 0.00 0.03 0.00 82 1022.3
20211201162406 60 113 6.0 12.0 0.00 0.03 0.00 82 1022.3
20211201161905 60 95 4.0 14.0 0.00 0.03 0.00 81 1022.3
20211201161406 60 124 4.0 14.0 0.00 0.03 0.00 81 1022.3
20211201160905 60 100 5.0 17.0 0.00 0.03 0.00 81 1022.4
20211201160406 60 124 6.0 14.0 0.00 0.03 0.00 81 1022.3
20211201155905 60 339 6.0 16.0 0.00 0.03 0.00 81 1022.3
20211201155406 60 137 5.0 15.0 0.00 0.03 0.00 81 1022.4
20211201154905 60 86 5.0 13.0 0.00 0.03 0.00 81 1022.2
20211201154406 60 138 6.0 15.0 0.00 0.03 0.00 81 1022.3
20211201153905 60 117 6.0 14.0 0.00 0.03 0.00 81 1022.3
20211201153405 60 66 5.0 15.0 0.00 0.03 0.00 80 1022.3
20211201152905 60 94 3.0 12.0 0.00 0.03 0.00 80 1022.3
20211201152406 60 112 4.0 10.0 0.00 0.03 0.00 80 1022.3
20211201151905 60 88 5.0 15.0 0.00 0.03 0.00 80 1022.4
20211201151405 60 104 4.0 14.0 0.00 0.03 0.00 80 1022.3
20211201150905 60 128 8.0 18.0 0.00 0.03 0.00 81 1022.3
20211201150405 60 85 3.0 14.0 0.00 0.03 0.00 81 1022.3
20211201145905 60 112 6.0 16.0 0.00 0.03 0.00 81 1022.3
20211201145405 60 106 5.0 18.0 0.00 0.04 0.00 80 1022.2
20211201144905 60 89 6.0 14.0 0.00 0.04 0.00 80 1022.3
20211201144406 60 129 6.0 15.0 0.00 0.04 0.00 79 1022.4
20211201143905 60 135 7.0 17.0 0.00 0.04 0.00 79 1022.3
20211201143406 60 108 8.0 15.0 0.00 0.04 0.00 79 1022.2
20211201142906 60 94 6.0 16.0 0.00 0.05 0.00 80 1022.3
20211201142406 60 116 6.0 20.0 0.00 0.05 0.00 80 1022.3
20211201141906 60 108 6.0 17.0 0.00 0.05 0.00 80 1022.5
20211201141405 60 117 4.0 12.0 0.00 0.05 0.00 80 1022.4
20211201140905 60 125 7.0 15.0 0.00 0.05 0.00 80 1022.4
20211201140405 60 64 6.0 20.0 0.00 0.05 0.00 80 1022.3
20211201135906 60 115 4.0 20.0 0.00 0.05 0.00 80 1022.4
20211201135405 60 126 4.0 12.0 0.00 0.05 0.00 80 1022.5
20211201134905 60 96 4.0 13.0 0.00 0.05 0.00 79 1022.6
20211201134405 60 115 5.0 14.0 0.00 0.06 0.00 79 1022.5
20211201133905 60 90 5.0 12.0 0.00 0.06 0.00 79 1022.7
20211201133405 60 148 5.0 12.0 0.00 0.06 0.00 78 1022.6
20211201132905 60 92 5.0 15.0 0.00 0.06 0.00 77 1022.7
20211201132406 60 124 5.0 20.0 0.00 0.06 0.00 77 1022.8
20211201131905 60 93 6.0 15.0 0.00 0.06 0.00 78 1022.9
20211201131406 60 92 3.0 10.0 0.00 0.06 0.00 79 1022.9
20211201130905 60 70 4.0 14.0 0.00 0.06 0.00 80 1023.0
20211201130406 60 120 6.0 17.0 0.00 0.06 0.00 80 1022.9
20211201125905 60 79 4.0 12.0 0.00 0.06 0.00 80 1022.9
20211201125406 60 105 3.0 14.0 0.00 0.06 0.00 80 1022.8
20211201124905 60 136 5.0 12.0 0.00 0.06 0.00 79 1022.8
20211201124405 60 73 6.0 18.0 0.00 0.06 0.00 79 1022.9
20211201123905 60 103 5.0 17.0 0.00 0.06 0.00 79 1023.0
20211201123405 60 124 5.0 13.0 0.00 0.06 0.00 79 1023.1
20211201122905 60 82 5.0 15.0 0.00 0.06 0.00 79 1023.1
20211201122405 60 92 5.0 12.0 0.00 0.06 0.00 79 1023.2
20211201121905 60 114 6.0 15.0 0.00 0.06 0.00 79 1023.1
20211201121406 60 43 5.0 13.0 0.00 0.06 0.00 78 1023.2
20211201120905 60 116 5.0 16.0 0.00 0.06 0.00 78 1023.3
20211201120405 60 131 5.0 13.0 0.00 0.06 0.00 79 1023.3
20211201115905 60 123 7.0 16.0 0.03 0.06 0.00 79 1023.3
20211201115406 60 90 5.0 9.0 0.03 0.06 0.00 79 1023.4
20211201114905 60 72 7.0 13.0 0.03 0.06 0.00 79 1023.4
20211201114405 60 107 6.0 17.0 0.03 0.06 0.00 78 1023.4
20211201113905 61 111 5.0 12.0 0.03 0.06 0.00 78 1023.5
20211201113405 61 149 5.0 14.0 0.03 0.06 0.00 78 1023.5
20211201112905 61 79 5.0 15.0 0.03 0.06 0.00 78 1023.4
20211201112405 61 114 6.0 14.0 0.03 0.06 0.00 78 1023.4
20211201111905 61 115 6.0 15.0 0.03 0.06 0.00 79 1023.4
20211201111405 61 95 6.0 12.0 0.03 0.06 0.00 79 1023.3
20211201110905 61 114 5.0 15.0 0.03 0.06 0.00 80 1023.4
20211201110405 61 139 2.0 12.0 0.03 0.06 0.00 80 1023.5
20211201105905 61 94 3.0 10.0 0.00 0.08 0.03 80 1023.4
20211201105405 61 116 5.0 20.0 0.00 0.08 0.03 80 1023.4
20211201104905 61 101 4.0 14.0 0.00 0.08 0.03 80 1023.3
20211201104405 61 91 5.0 14.0 0.00 0.08 0.03 80 1023.3
20211201103905 61 75 3.0 15.0 0.00 0.08 0.03 80 1023.2
20211201103405 61 97 5.0 12.0 0.00 0.08 0.03 80 1023.3
20211201102905 61 106 6.0 12.0 0.00 0.08 0.03 80 1023.3
20211201102405 61 110 5.0 12.0 0.00 0.08 0.03 81 1023.4
20211201101905 61 109 6.0 15.0 0.00 0.08 0.03 82 1023.5
20211201101406 61 106 3.0 9.0 0.00 0.08 0.03 82 1023.5
20211201100905 61 73 3.0 12.0 0.00 0.08 0.03 81 1023.5
20211201100405 61 127 3.0 13.0 0.00 0.08 0.03 81 1023.4
20211201095906 61 132 3.0 8.0 0.00 0.08 0.03 80 1023.5
20211201095405 61 124 5.0 14.0 0.00 0.08 0.03 80 1023.4
20211201094906 61 140 5.0 9.0 0.00 0.08 0.03 80 1023.4
20211201094405 61 123 3.0 12.0 0.00 0.08 0.03 80 1023.4
20211201093905 61 120 5.0 12.0 0.00 0.08 0.03 80 1023.4
20211201093406 61 106 6.0 12.0 0.00 0.08 0.03 81 1023.4
20211201092905 61 110 6.0 13.0 0.00 0.08 0.03 81 1023.3
20211201092405 61 87 4.0 8.0 0.00 0.08 0.03 82 1023.3
20211201091905 61 100 3.0 8.0 0.00 0.08 0.03 81 1023.3
20211201091405 61 139 2.0 7.0 0.00 0.08 0.03 81 1023.2
20211201090905 61 72 3.0 12.0 0.00 0.08 0.03 81 1023.1
20211201090405 61 130 4.0 8.0 0.00 0.08 0.03 80 1023.1
20211201085905 61 120 2.0 9.0 0.00 0.08 0.03 80 1023.1
20211201085405 61 110 4.0 9.0 0.00 0.08 0.03 79 1023.0
20211201084905 61 131 5.0 8.0 0.00 0.08 0.03 79 1022.9
20211201084405 61 128 2.0 7.0 0.00 0.08 0.03 79 1022.9
20211201083905 61 135 1.0 6.0 0.00 0.08 0.03 78 1022.8
20211201083405 61 164 1.0 3.0 0.00 0.08 0.03 78 1022.8
20211201082905 61 126 1.0 5.0 0.00 0.08 0.03 78 1022.7
20211201082405 60 123 3.0 8.0 0.00 0.08 0.03 79 1022.6
20211201081905 60 121 1.0 3.0 0.00 0.08 0.03 78 1022.6
20211201081405 60 113 0.0 1.0 0.00 0.08 0.03 79 1022.6
20211201080905 61 200 0.0 3.0 0.00 0.08 0.03 78 1022.6
20211201080405 61 198 1.0 3.0 0.00 0.08 0.03 78 1022.5
20211201075905 61 132 2.0 6.0 0.00 0.08 0.03 78 1022.5
20211201075405 61 75 1.0 5.0 0.00 0.08 0.03 79 1022.4
20211201074906 61 309 2.0 7.0 0.00 0.08 0.03 78 1022.3
20211201074405 61 118 1.0 9.0 0.00 0.08 0.03 79 1022.2
20211201073906 61 113 2.0 3.0 0.00 0.08 0.03 79 1022.2
20211201073406 61 159 1.0 3.0 0.00 0.08 0.03 79 1022.2
20211201072906 61 140 2.0 5.0 0.00 0.08 0.03 79 1022.2
20211201072405 62 168 3.0 12.0 0.00 0.08 0.03 78 1022.2
20211201071905 62 138 1.0 7.0 0.00 0.08 0.03 78 1022.2
20211201071405 62 184 1.0 7.0 0.00 0.08 0.03 79 1022.2
20211201070906 62 143 1.0 7.0 0.00 0.08 0.03 78 1022.2
20211201070405 62 125 2.0 5.0 0.00 0.08 0.03 78 1022.0
20211201065905 62 139 1.0 7.0 0.00 0.08 0.03 78 1022.0
20211201065405 63 147 2.0 6.0 0.00 0.08 0.03 78 1022.0
20211201064905 63 149 0.0 7.0 0.00 0.08 0.03 77 1021.9
20211201064405 63 306 2.0 8.0 0.00 0.08 0.03 77 1021.8
20211201063905 63 119 2.0 7.0 0.00 0.08 0.03 77 1021.8
20211201063406 64 120 2.0 6.0 0.00 0.08 0.03 77 1021.8
20211201062905 64 136 2.0 6.0 0.00 0.08 0.03 77 1021.8
20211201062405 64 125 2.0 6.0 0.00 0.08 0.03 77 1021.9
20211201061905 64 126 1.0 8.0 0.00 0.08 0.03 76 1021.9
20211201061405 65 162 2.0 7.0 0.00 0.08 0.03 76 1021.7
20211201060906 65 63 1.0 3.0 0.00 0.08 0.03 75 1021.6
20211201060405 66 330 1.0 3.0 0.00 0.08 0.03 74 1021.6
20211201055905 66 298 2.0 3.0 0.00 0.08 0.03 74 1021.5
20211201055405 67 69 3.0 8.0 0.00 0.08 0.03 73 1021.4
20211201054905 67 3 1.0 3.0 0.00 0.08 0.03 74 1021.4
20211201054405 66 147 2.0 10.0 0.00 0.08 0.03 74 1021.3
20211201053905 66 210 2.0 8.0 0.00 0.08 0.03 74 1021.2
20211201053405 66 178 2.0 9.0 0.00 0.08 0.03 75 1021.1
20211201052905 66 250 1.0 8.0 0.00 0.08 0.03 75 1021.1
20211201052405 66 351 3.0 7.0 0.00 0.08 0.03 75 1021.1
20211201051905 66 118 3.0 8.0 0.00 0.08 0.03 75 1021.1
20211201051405 67 344 3.0 10.0 0.00 0.08 0.03 73 1021.1
20211201050905 68 83 4.0 12.0 0.00 0.08 0.03 71 1020.9
20211201050405 68 164 2.0 7.0 0.00 0.08 0.03 71 1020.9
20211201045905 68 117 4.0 12.0 0.00 0.08 0.03 70 1020.9
20211201045405 69 127 5.0 13.0 0.00 0.08 0.03 69 1020.9
20211201044905 69 306 2.0 6.0 0.00 0.08 0.03 68 1020.8
20211201044406 69 42 3.0 15.0 0.00 0.08 0.03 68 1020.8
20211201043904 69 143 3.0 10.0 0.00 0.08 0.03 68 1020.7
20211201043405 69 13 3.0 12.0 0.00 0.08 0.03 68 1020.9
20211201042905 69 100 6.0 12.0 0.00 0.08 0.03 68 1020.9
20211201042405 69 6 4.0 9.0 0.00 0.08 0.03 67 1020.9
20211201041905 69 98 3.0 12.0 0.00 0.08 0.03 67 1020.9
20211201041405 69 342 4.0 18.0 0.00 0.08 0.03 66 1020.9
20211201040905 69 171 3.0 7.0 0.00 0.08 0.03 66 1020.8
20211201040405 69 104 3.0 12.0 0.00 0.08 0.03 67 1020.9
20211201035905 68 103 4.0 13.0 0.00 0.08 0.03 68 1020.9
20211201035405 68 73 5.0 15.0 0.00 0.08 0.03 68 1021.0
20211201034905 68 96 8.0 17.0 0.00 0.08 0.03 68 1021.1
20211201034405 68 51 6.0 12.0 0.00 0.08 0.03 68 1021.1
20211201033905 68 78 7.0 15.0 0.00 0.08 0.03 68 1021.1
20211201033405 68 107 7.0 13.0 0.00 0.08 0.03 68 1021.1
20211201032905 68 84 5.0 13.0 0.00 0.08 0.03 69 1021.2
20211201032405 67 103 4.0 17.0 0.00 0.08 0.03 70 1021.2
20211201031905 67 84 10.0 18.0 0.00 0.08 0.03 68 1021.2
20211201031405 68 85 6.0 15.0 0.00 0.08 0.03 69 1021.2
20211201030905 68 98 6.0 17.0 0.00 0.08 0.03 70 1021.2
20211201030405 69 84 4.0 12.0 0.00 0.08 0.03 71 1021.2
20211201025905 68 71 3.0 13.0 0.00 0.08 0.03 71 1021.2
20211201025405 68 83 7.0 16.0 0.00 0.08 0.03 71 1021.3
20211201024905 68 68 8.0 17.0 0.00 0.08 0.03 70 1021.3
20211201024405 68 69 3.0 12.0 0.00 0.08 0.03 72 1021.4
20211201023905 68 89 6.0 14.0 0.00 0.08 0.03 72 1021.5
20211201023405 68 119 6.0 14.0 0.00 0.08 0.03 72 1021.4
20211201022905 68 83 5.0 14.0 0.00 0.08 0.03 72 1021.4
20211201022405 68 81 7.0 15.0 0.00 0.08 0.03 72 1021.4
20211201021905 67 105 6.0 14.0 0.00 0.08 0.03 73 1021.5
20211201021405 67 91 9.0 16.0 0.00 0.08 0.03 72 1021.6
20211201020905 68 87 6.0 16.0 0.00 0.08 0.03 73 1021.6
20211201020405 68 92 5.0 16.0 0.00 0.08 0.03 73 1021.6
20211201015905 68 94 6.0 17.0 0.00 0.08 0.03 73 1021.7
20211201015405 69 97 3.0 14.0 0.00 0.08 0.03 72 1021.6
20211201014906 68 68 7.0 12.0 0.00 0.08 0.03 73 1021.7
20211201014405 67 110 5.0 10.0 0.00 0.08 0.03 75 1021.6
20211201013905 67 85 6.0 15.0 0.00 0.08 0.03 74 1021.8
20211201013405 67 103 8.0 16.0 0.00 0.08 0.03 74 1021.8
20211201012906 67 143 5.0 16.0 0.00 0.08 0.03 75 1021.8
20211201012405 67 77 8.0 18.0 0.00 0.08 0.03 73 1021.8
20211201011905 67 96 5.0 14.0 0.00 0.08 0.03 74 1021.8
20211201011405 67 103 4.0 17.0 0.00 0.08 0.03 74 1021.8
20211201010906 67 89 8.0 17.0 0.00 0.08 0.03 72 1021.8
20211201010405 67 96 7.0 17.0 0.00 0.08 0.03 72 1021.8
20211201005905 68 111 2.0 15.0 0.00 0.09 0.03 73 1021.8
20211201005405 68 77 4.0 13.0 0.00 0.09 0.03 73 1021.8
20211201004905 67 86 2.0 12.0 0.00 0.09 0.03 75 1022.0
20211201004405 66 56 5.0 17.0 0.00 0.09 0.03 74 1022.1
20211201003905 66 111 7.0 15.0 0.00 0.09 0.03 74 1022.1
20211201003405 67 97 9.0 16.0 0.00 0.09 0.03 74 1022.1
20211201002904 67 33 3.0 13.0 0.00 0.09 0.03 75 1022.1
20211201002406 67 80 4.0 12.0 0.00 0.09 0.03 76 1022.1
20211201001905 66 95 7.0 14.0 0.00 0.09 0.03 76 1022.1
20211201001405 66 83 4.0 12.0 0.00 0.09 0.03 78 1022.2
20211201000905 65 112 6.0 16.0 0.00 0.09 0.03 78 1022.1
20211201000405 65 95 7.0 16.0 0.00 0.09 0.03 76 1022.1
20211130235905 65 98 5.0 16.0 0.00 0.09 0.03 77 1022.1
20211130235405 67 103 6.0 15.0 0.00 0.09 0.03 76 1022.2
20211130234905 66 72 4.0 13.0 0.00 0.09 0.03 76 1022.2
20211130234405 66 117 6.0 13.0 0.00 0.09 0.03 76 1022.3
20211130233905 66 80 6.0 16.0 0.00 0.09 0.03 77 1022.3
20211130233404 66 96 7.0 13.0 0.00 0.09 0.03 77 1022.3
20211130232905 66 83 9.0 17.0 0.00 0.09 0.03 76 1022.3
20211130232405 66 133 5.0 12.0 0.00 0.09 0.03 78 1022.2
20211130231905 66 89 6.0 13.0 0.00 0.09 0.03 78 1022.2
20211130231405 66 142 3.0 10.0 0.00 0.09 0.03 79 1022.1
20211130230906 65 81 4.0 12.0 0.00 0.09 0.03 79 1022.1
20211130230406 65 77 9.0 14.0 0.00 0.09 0.03 78 1022.1
20211130225906 66 86 7.0 14.0 0.00 0.09 0.03 77 1022.2
20211130225405 66 43 3.0 13.0 0.00 0.09 0.03 78 1022.2
20211130224905 67 50 5.0 13.0 0.00 0.09 0.03 77 1022.2
20211130224405 66 143 5.0 14.0 0.00 0.09 0.03 78 1022.1
20211130223905 66 100 3.0 12.0 0.00 0.09 0.03 80 1022.1
20211130223404 65 101 7.0 14.0 0.00 0.09 0.03 80 1022.1
20211130222904 65 68 6.0 13.0 0.00 0.09 0.03 80 1022.1
20211130222405 65 106 7.0 16.0 0.00 0.09 0.03 81 1022.1
20211130221905 64 15 4.0 14.0 0.00 0.09 0.03 82 1022.0
20211130221405 64 25 6.0 15.0 0.00 0.09 0.03 82 1022.0
20211130220905 64 94 5.0 14.0 0.00 0.09 0.03 82 1022.0
20211130220404 64 54 5.0 14.0 0.00 0.09 0.03 82 1021.9
20211130215905 64 113 4.0 9.0 0.00 0.09 0.03 83 1021.9
20211130215405 64 81 5.0 13.0 0.00 0.09 0.03 83 1021.9
20211130214905 63 148 3.0 8.0 0.00 0.09 0.03 85 1021.8
20211130214404 63 81 3.0 12.0 0.00 0.09 0.03 85 1021.8
20211130213904 63 67 3.0 12.0 0.00 0.09 0.03 85 1021.8
20211130213405 63 88 6.0 12.0 0.00 0.09 0.03 85 1021.8
20211130212905 63 79 6.0 13.0 0.00 0.09 0.03 86 1021.7
20211130212405 63 93 5.0 13.0 0.00 0.09 0.03 85 1021.6
20211130211905 64 109 6.0 12.0 0.00 0.09 0.03 85 1021.6
20211130211405 64 113 3.0 13.0 0.00 0.09 0.03 84 1021.5
20211130210906 65 106 5.0 12.0 0.00 0.09 0.03 86 1021.5
20211130210405 65 73 6.0 13.0 0.00 0.09 0.03 87 1021.4
20211130205905 64 125 5.0 12.0 0.00 0.09 0.03 88 1021.5
20211130205405 64 65 2.0 8.0 0.00 0.09 0.03 88 1021.5
20211130204905 63 113 3.0 8.0 0.00 0.09 0.03 88 1021.6
20211130204405 63 80 5.0 10.0 0.00 0.09 0.03 88 1021.5
20211130203905 64 114 5.0 10.0 0.00 0.09 0.03 88 1021.5
20211130203406 64 119 4.0 12.0 0.00 0.09 0.03 88 1021.5
20211130202905 64 100 5.0 12.0 0.00 0.09 0.03 88 1021.5
20211130202406 64 93 1.0 7.0 0.00 0.09 0.03 88 1021.5
20211130201905 64 83 4.0 12.0 0.00 0.09 0.03 88 1021.5
20211130201405 64 128 6.0 15.0 0.00 0.09 0.03 88 1021.5
20211130200904 65 97 4.0 10.0 0.00 0.09 0.03 89 1021.4
20211130200405 64 113 3.0 13.0 0.00 0.09 0.03 90 1021.3
20211130195905 64 197 2.0 7.0 0.00 0.09 0.03 91 1021.3
20211130195405 64 88 3.0 8.0 0.00 0.09 0.03 92 1021.3
20211130194905 63 129 2.0 12.0 0.00 0.09 0.03 92 1021.3
20211130194405 63 97 3.0 12.0 0.00 0.09 0.03 92 1021.3
20211130193905 62 87 4.0 12.0 0.00 0.09 0.03 92 1021.4
20211130193404 62 102 4.0 12.0 0.00 0.09 0.03 92 1021.3
20211130192905 62 80 2.0 7.0 0.00 0.09 0.03 93 1021.3
20211130192405 61 110 2.0 10.0 0.00 0.09 0.03 93 1021.2